TimePST,TemperatureF,Dew PointF,Humidity,Sea Level PressureIn,VisibilityMPH,Wind Direction,Wind SpeedMPH,Gust SpeedMPH,PrecipitationIn,Events,Conditions,WindDirDegrees,DateUTC
12:56 AM,24.1,9.0,53,30.08,10.0,NNW,9.2,18.4,N/A,,Clear,340,2013-12-04 08:56:00
1:56 AM,21.9,7.0,53,30.11,10.0,NNW,4.6,-,N/A,,Clear,330,2013-12-04 09:56:00
2:56 AM,19.9,5.0,52,30.13,10.0,Variable,5.8,-,N/A,,Clear,0,2013-12-04 10:56:00
3:56 AM,18.0,3.9,54,30.14,10.0,Calm,Calm,-,N/A,,Clear,0,2013-12-04 11:56:00
4:56 AM,17.1,3.9,56,30.14,10.0,North,3.5,-,N/A,,Clear,350,2013-12-04 12:56:00
5:56 AM,17.1,3.0,54,30.16,10.0,NNW,5.8,-,N/A,,Clear,340,2013-12-04 13:56:00
6:56 AM,15.1,3.9,61,30.18,10.0,Calm,Calm,-,N/A,,Clear,0,2013-12-04 14:56:00
7:56 AM,15.1,5.0,64,30.19,10.0,Variable,3.5,-,N/A,,Clear,0,2013-12-04 15:56:00
8:56 AM,19.0,5.0,54,30.20,10.0,Variable,3.5,-,N/A,,Clear,0,2013-12-04 16:56:00
9:56 AM,21.0,5.0,50,30.21,10.0,Variable,5.8,-,N/A,,Clear,0,2013-12-04 17:56:00
10:56 AM,24.1,5.0,44,30.19,10.0,Variable,4.6,-,N/A,,Clear,0,2013-12-04 18:56:00
11:56 AM,26.1,7.0,44,30.18,10.0,WNW,4.6,-,N/A,,Clear,290,2013-12-04 19:56:00
12:56 PM,28.0,8.1,43,30.16,10.0,North,9.2,-,N/A,,Clear,360,2013-12-04 20:56:00
1:56 PM,30.0,7.0,38,30.15,10.0,North,8.1,-,N/A,,Clear,350,2013-12-04 21:56:00
2:56 PM,28.0,7.0,41,30.16,10.0,Variable,6.9,-,N/A,,Clear,0,2013-12-04 22:56:00
3:56 PM,27.0,6.1,41,30.16,10.0,North,8.1,17.3,N/A,,Clear,10,2013-12-04 23:56:00
4:56 PM,25.0,6.1,45,30.18,10.0,North,8.1,-,N/A,,Clear,350,2013-12-05 00:56:00
5:56 PM,23.0,6.1,48,30.19,10.0,Variable,4.6,-,N/A,,Clear,0,2013-12-05 01:56:00
6:56 PM,19.9,6.1,55,30.21,10.0,Calm,Calm,-,N/A,,Clear,0,2013-12-05 02:56:00
7:56 PM,17.1,5.0,59,30.23,8.0,NE,3.5,-,N/A,,Clear,50,2013-12-05 03:56:00
8:56 PM,16.0,3.9,59,30.24,7.0,East,3.5,-,N/A,,Clear,100,2013-12-05 04:56:00
9:56 PM,14.0,3.9,64,30.24,8.0,Calm,Calm,-,N/A,,Clear,0,2013-12-05 05:56:00
10:56 PM,12.9,3.0,65,30.24,8.0,ENE,3.5,-,N/A,,Clear,60,2013-12-05 06:56:00
11:56 PM,10.9,1.9,67,30.25,5.0,NE,3.5,-,N/A,,Haze,50,2013-12-05 07:56:00